| time (UTC) | temp C | wind direction | speed KPH | gust KPH | rain 1hr cm | rain 24hr cm | rain mn cm | humidity % | barometer mb |
| 20260509000622 | 6 | 225 | 53.1 | 66.0 | 0.00 | 0.00 | 0.00 | 72 | 1013.6 |
| 20260509000112 | 7 | 225 | 38.6 | 54.7 | 0.00 | 0.00 | 0.00 | 72 | 1013.4 |
| 20260508235602 | 7 | 203 | 33.8 | 61.2 | 0.00 | 0.00 | 0.00 | 71 | 1013.2 |
| 20260508235052 | 7 | 203 | 38.6 | 61.2 | 0.00 | 0.00 | 0.00 | 71 | 1012.8 |
| 20260508234543 | 7 | 225 | 37.0 | 61.2 | 0.00 | 0.00 | 0.00 | 72 | 1012.7 |
| 20260508234032 | 7 | 203 | 43.5 | 61.2 | 0.00 | 0.00 | 0.00 | 71 | 1012.6 |
| 20260508233012 | 7 | 203 | 37.0 | 57.9 | 0.00 | 0.00 | 0.00 | 70 | 1012.4 |
| 20260508232501 | 7 | 203 | 48.3 | 57.9 | 0.00 | 0.00 | 0.00 | 70 | 1012.0 |
| 20260508231951 | 7 | 225 | 27.4 | 51.5 | 0.00 | 0.00 | 0.00 | 69 | 1012.0 |
| 20260508231441 | 7 | 203 | 43.5 | 51.5 | 0.00 | 0.00 | 0.00 | 67 | 1011.8 |
| 20260508230421 | 8 | 180 | 38.6 | 48.3 | 0.00 | 0.00 | 0.00 | 62 | 1011.3 |
| 20260508225400 | 9 | 203 | 29.0 | 40.2 | 0.00 | 0.00 | 0.00 | 57 | 1010.9 |
| 20260508224903 | 10 | 180 | 22.5 | 32.2 | 0.00 | 0.00 | 0.00 | 56 | 1010.8 |
| 20260508224341 | 10 | 180 | 20.9 | 35.4 | 0.00 | 0.00 | 0.00 | 55 | 1010.4 |
| 20260508223830 | 10 | 158 | 17.7 | 35.4 | 0.00 | 0.00 | 0.00 | 55 | 1010.4 |
| 20260508222810 | 11 | 180 | 24.1 | 35.4 | 0.00 | 0.00 | 0.00 | 52 | 1010.0 |
| 20260508222300 | 11 | 203 | 12.9 | 20.9 | 0.00 | 0.00 | 0.00 | 52 | 1009.8 |
| 20260508221750 | 11 | 180 | 11.3 | 22.5 | 0.00 | 0.00 | 0.00 | 52 | 1009.8 |
| 20260508221240 | 11 | 180 | 9.7 | 22.5 | 0.00 | 0.00 | 0.00 | 52 | 1009.6 |
| 20260508220729 | 11 | 180 | 11.3 | 17.7 | 0.00 | 0.00 | 0.00 | 52 | 1009.6 |
| 20260508220220 | 11 | 180 | 12.9 | 17.7 | 0.00 | 0.00 | 0.00 | 52 | 1009.2 |
| 20260508215710 | 11 | 158 | 8.0 | 17.7 | 0.00 | 0.00 | 0.00 | 52 | 1009.2 |
| 20260508215159 | 11 | 158 | 6.4 | 12.9 | 0.00 | 0.00 | 0.00 | 51 | 1008.9 |
| 20260508214139 | 11 | 180 | 1.6 | 11.3 | 0.00 | 0.00 | 0.00 | 50 | 1008.8 |
| 20260508213629 | 11 | 158 | 3.2 | 14.5 | 0.00 | 0.00 | 0.00 | 50 | 1008.8 |
| 20260508212608 | 12 | 180 | 8.0 | 17.7 | 0.00 | 0.00 | 0.00 | 48 | 1008.8 |
| 20260508212059 | 12 | 180 | 11.3 | 17.7 | 0.00 | 0.00 | 0.00 | 48 | 1008.4 |
| 20260508211549 | 12 | 158 | 8.0 | 17.7 | 0.00 | 0.00 | 0.00 | 47 | 1008.4 |
| 20260508211038 | 12 | 180 | 9.7 | 17.7 | 0.00 | 0.00 | 0.00 | 46 | 1008.2 |
| 20260508210528 | 12 | 158 | 12.9 | 17.7 | 0.00 | 0.00 | 0.00 | 46 | 1008.2 |
| 20260508210018 | 13 | 158 | 9.7 | 17.7 | 0.00 | 0.00 | 0.00 | 45 | 1008.0 |
| 20260508205508 | 13 | 158 | 12.9 | 17.7 | 0.00 | 0.00 | 0.00 | 44 | 1007.8 |
| 20260508204957 | 13 | 158 | 8.0 | 17.7 | 0.00 | 0.00 | 0.00 | 44 | 1007.9 |
| 20260508204448 | 13 | 158 | 9.7 | 17.7 | 0.00 | 0.00 | 0.00 | 42 | 1008.1 |
| 20260508203938 | 13 | 158 | 11.3 | 17.7 | 0.00 | 0.00 | 0.00 | 42 | 1008.1 |
| 20260508202407 | 14 | 180 | 6.4 | 17.7 | 0.00 | 0.00 | 0.00 | 40 | 1007.8 |
| 20260508201857 | 13 | 158 | 6.4 | 17.7 | 0.00 | 0.00 | 0.00 | 43 | 1007.7 |
| 20260508200838 | 14 | 180 | 12.9 | 20.9 | 0.00 | 0.00 | 0.00 | 41 | 1008.1 |
| 20260508195308 | 14 | 180 | 12.9 | 22.5 | 0.00 | 0.00 | 0.00 | 41 | 1008.1 |
| 20260508194757 | 15 | 180 | 14.5 | 22.5 | 0.00 | 0.00 | 0.00 | 40 | 1008.1 |
| 20260508194246 | 15 | 203 | 16.1 | 22.5 | 0.00 | 0.00 | 0.00 | 40 | 1008.0 |
| 20260508193737 | 15 | 180 | 14.5 | 17.7 | 0.00 | 0.00 | 0.00 | 40 | 1008.1 |
| 20260508193226 | 15 | 225 | 8.0 | 22.5 | 0.00 | 0.00 | 0.00 | 40 | 1007.8 |
| 20260508190126 | 15 | 203 | 12.9 | 32.2 | 0.00 | 0.00 | 0.00 | 41 | 1007.8 |
| 20260508185105 | 15 | 203 | 12.9 | 24.1 | 0.00 | 0.00 | 0.00 | 41 | 1008.4 |
| 20260508184556 | 14 | 225 | 14.5 | 24.1 | 0.00 | 0.00 | 0.00 | 41 | 1008.3 |
| 20260508184045 | 14 | 203 | 12.9 | 27.4 | 0.00 | 0.00 | 0.00 | 42 | 1008.3 |
| 20260508183535 | 15 | 203 | 12.9 | 27.4 | 0.00 | 0.00 | 0.00 | 40 | 1008.4 |
| 20260508183024 | 15 | 203 | 12.9 | 24.1 | 0.00 | 0.00 | 0.00 | 41 | 1008.2 |
| 20260508182515 | 15 | 203 | 11.3 | 22.5 | 0.00 | 0.00 | 0.00 | 41 | 1008.4 |
| 20260508181454 | 14 | 203 | 16.1 | 25.7 | 0.00 | 0.00 | 0.00 | 42 | 1008.4 |
| 20260508180435 | 15 | 180 | 19.3 | 33.8 | 0.00 | 0.00 | 0.00 | 42 | 1008.6 |
| 20260508175925 | 15 | 203 | 12.9 | 33.8 | 0.00 | 0.00 | 0.00 | 42 | 1008.9 |
| 20260508175414 | 15 | 203 | 27.4 | 33.8 | 0.00 | 0.00 | 0.00 | 41 | 1008.6 |
| 20260508174904 | 14 | 225 | 14.5 | 32.2 | 0.00 | 0.00 | 0.00 | 42 | 1009.0 |
| 20260508173843 | 15 | 203 | 12.9 | 35.4 | 0.00 | 0.00 | 0.00 | 42 | 1009.2 |
| 20260508173333 | 14 | 225 | 20.9 | 35.4 | 0.00 | 0.00 | 0.00 | 43 | 1009.3 |
| 20260508172824 | 14 | 248 | 29.0 | 35.4 | 0.00 | 0.00 | 0.00 | 43 | 1009.2 |
| 20260508172313 | 14 | 225 | 12.9 | 29.0 | 0.00 | 0.00 | 0.00 | 43 | 1009.6 |
| 20260508171804 | 14 | 180 | 17.7 | 48.3 | 0.00 | 0.00 | 0.00 | 42 | 1009.6 |
| 20260508170743 | 13 | 225 | 32.2 | 40.2 | 0.00 | 0.00 | 0.00 | 43 | 1009.8 |
| 20260508170233 | 13 | 203 | 24.1 | 33.8 | 0.00 | 0.00 | 0.00 | 43 | 1010.0 |
| 20260508165723 | 14 | 225 | 24.1 | 33.8 | 0.00 | 0.00 | 0.00 | 43 | 1010.1 |
| 20260508165213 | 14 | 225 | 20.9 | 38.6 | 0.00 | 0.00 | 0.00 | 43 | 1010.2 |
| 20260508164702 | 13 | 203 | 27.4 | 38.6 | 0.00 | 0.00 | 0.00 | 44 | 1010.2 |
| 20260508163642 | 13 | 225 | 19.3 | 46.7 | 0.00 | 0.00 | 0.00 | 44 | 1010.3 |
| 20260508162623 | 13 | 225 | 29.0 | 46.7 | 0.00 | 0.00 | 0.00 | 41 | 1010.4 |
| 20260508162114 | 13 | 225 | 33.8 | 48.3 | 0.00 | 0.00 | 0.00 | 41 | 1010.4 |
| 20260508161602 | 13 | 225 | 33.8 | 48.3 | 0.00 | 0.00 | 0.00 | 40 | 1010.5 |
| 20260508161052 | 13 | 225 | 33.8 | 51.5 | 0.00 | 0.00 | 0.00 | 41 | 1010.4 |
| 20260508160543 | 13 | 203 | 30.6 | 54.7 | 0.00 | 0.00 | 0.00 | 42 | 1010.5 |
| 20260508160031 | 13 | 225 | 33.8 | 54.7 | 0.00 | 0.00 | 0.00 | 40 | 1010.7 |
| 20260508155521 | 13 | 203 | 33.8 | 43.5 | 0.00 | 0.00 | 0.00 | 41 | 1010.7 |
| 20260508155011 | 13 | 225 | 27.4 | 43.5 | 0.00 | 0.00 | 0.00 | 39 | 1010.7 |
| 20260508154501 | 13 | 203 | 25.7 | 46.7 | 0.00 | 0.00 | 0.00 | 38 | 1010.7 |
| 20260508153952 | 12 | 203 | 32.2 | 49.9 | 0.00 | 0.00 | 0.00 | 38 | 1010.9 |
| 20260508153441 | 12 | 203 | 30.6 | 49.9 | 0.00 | 0.00 | 0.00 | 39 | 1010.8 |
| 20260508152931 | 12 | 225 | 41.8 | 49.9 | 0.00 | 0.00 | 0.00 | 38 | 1010.8 |
| 20260508151401 | 12 | 203 | 38.6 | 49.9 | 0.00 | 0.00 | 0.00 | 37 | 1011.1 |
| 20260508150850 | 12 | 203 | 35.4 | 54.7 | 0.00 | 0.00 | 0.00 | 36 | 1011.2 |
| 20260508150340 | 12 | 203 | 40.2 | 54.7 | 0.00 | 0.00 | 0.00 | 36 | 1011.5 |
| 20260508145830 | 12 | 203 | 30.6 | 49.9 | 0.00 | 0.00 | 0.00 | 36 | 1011.4 |
| 20260508145320 | 12 | 225 | 30.6 | 49.9 | 0.00 | 0.00 | 0.00 | 36 | 1011.2 |
| 20260508144810 | 12 | 225 | 33.8 | 54.7 | 0.00 | 0.00 | 0.00 | 35 | 1011.1 |
| 20260508144300 | 11 | 225 | 38.6 | 54.7 | 0.00 | 0.00 | 0.00 | 35 | 1011.3 |
| 20260508143750 | 11 | 225 | 33.8 | 54.7 | 0.00 | 0.00 | 0.00 | 34 | 1011.5 |
| 20260508143239 | 11 | 180 | 37.0 | 46.7 | 0.00 | 0.00 | 0.00 | 35 | 1011.7 |
| 20260508142730 | 11 | 203 | 33.8 | 43.5 | 0.00 | 0.00 | 0.00 | 36 | 1011.8 |
| 20260508142220 | 11 | 180 | 32.2 | 48.3 | 0.00 | 0.00 | 0.00 | 35 | 1011.8 |
| 20260508141712 | 11 | 203 | 33.8 | 48.3 | 0.00 | 0.00 | 0.00 | 35 | 1011.8 |
| 20260508140649 | 11 | 203 | 27.4 | 48.3 | 0.00 | 0.00 | 0.00 | 34 | 1012.0 |
| 20260508135629 | 10 | 225 | 38.6 | 49.9 | 0.00 | 0.00 | 0.00 | 35 | 1011.9 |
| 20260508135119 | 10 | 203 | 33.8 | 51.5 | 0.00 | 0.00 | 0.00 | 35 | 1012.0 |
| 20260508134609 | 10 | 225 | 30.6 | 57.9 | 0.00 | 0.00 | 0.00 | 35 | 1011.8 |
| 20260508134059 | 8 | 203 | 41.8 | 57.9 | 0.00 | 0.00 | 0.00 | 36 | 1011.9 |
| 20260508133548 | 8 | 225 | 33.8 | 54.7 | 0.00 | 0.00 | 0.00 | 36 | 1011.9 |
| 20260508133041 | 8 | 225 | 38.6 | 54.7 | 0.00 | 0.00 | 0.00 | 36 | 1011.6 |
| 20260508132528 | 8 | 203 | 35.4 | 54.7 | 0.00 | 0.00 | 0.00 | 36 | 1011.7 |
| 20260508132018 | 9 | 225 | 37.0 | 54.7 | 0.00 | 0.00 | 0.00 | 36 | 1011.7 |
| 20260508131512 | 9 | 225 | 35.4 | 49.9 | 0.00 | 0.00 | 0.00 | 37 | 1011.6 |
| 20260508130958 | 9 | 225 | 38.6 | 49.9 | 0.00 | 0.00 | 0.00 | 37 | 1011.5 |
| 20260508130448 | 9 | 225 | 27.4 | 49.9 | 0.00 | 0.00 | 0.00 | 38 | 1011.4 |
| 20260508125938 | 8 | 203 | 30.6 | 48.3 | 0.00 | 0.00 | 0.00 | 37 | 1011.7 |
| 20260508124917 | 8 | 225 | 24.1 | 46.7 | 0.00 | 0.00 | 0.00 | 42 | 1011.7 |
| 20260508123859 | 8 | 225 | 30.6 | 46.7 | 0.00 | 0.00 | 0.00 | 44 | 1011.9 |
| 20260508123347 | 7 | 225 | 29.0 | 38.6 | 0.00 | 0.00 | 0.00 | 46 | 1012.0 |
| 20260508122838 | 7 | 248 | 25.7 | 37.0 | 0.00 | 0.00 | 0.00 | 48 | 1011.8 |
| 20260508122327 | 7 | 225 | 24.1 | 32.2 | 0.00 | 0.00 | 0.00 | 46 | 1012.0 |
| 20260508121817 | 7 | 248 | 19.3 | 35.4 | 0.00 | 0.00 | 0.00 | 49 | 1012.0 |
| 20260508121309 | 6 | 248 | 14.5 | 37.0 | 0.00 | 0.00 | 0.00 | 49 | 1012.1 |
| 20260508120757 | 6 | 248 | 24.1 | 37.0 | 0.00 | 0.00 | 0.00 | 48 | 1012.1 |
| 20260508120247 | 6 | 225 | 22.5 | 35.4 | 0.00 | 0.00 | 0.00 | 50 | 1012.0 |
| 20260508115736 | 6 | 225 | 22.5 | 35.4 | 0.00 | 0.00 | 0.00 | 49 | 1011.8 |
| 20260508115226 | 6 | 225 | 17.7 | 33.8 | 0.00 | 0.00 | 0.00 | 49 | 1011.9 |
| 20260508114716 | 6 | 225 | 19.3 | 33.8 | 0.00 | 0.00 | 0.00 | 50 | 1011.7 |
| 20260508114206 | 6 | 225 | 17.7 | 29.0 | 0.00 | 0.00 | 0.00 | 52 | 1011.7 |
| 20260508113656 | 6 | 248 | 20.9 | 29.0 | 0.00 | 0.00 | 0.00 | 52 | 1011.5 |
| 20260508113145 | 6 | 225 | 22.5 | 27.4 | 0.00 | 0.00 | 0.00 | 52 | 1011.7 |
| 20260508112126 | 5 | 225 | 16.1 | 29.0 | 0.00 | 0.00 | 0.00 | 52 | 1011.6 |
| 20260508111616 | 5 | 225 | 17.7 | 35.4 | 0.00 | 0.00 | 0.00 | 51 | 1011.8 |
| 20260508110556 | 6 | 225 | 19.3 | 40.2 | 0.00 | 0.00 | 0.00 | 50 | 1011.7 |
| 20260508110047 | 6 | 225 | 24.1 | 40.2 | 0.00 | 0.00 | 0.00 | 50 | 1011.7 |
| 20260508105535 | 6 | 225 | 27.4 | 37.0 | 0.00 | 0.00 | 0.00 | 50 | 1011.7 |
| 20260508105025 | 6 | 225 | 24.1 | 40.2 | 0.00 | 0.00 | 0.00 | 51 | 1011.5 |
| 20260508104009 | 6 | 225 | 22.5 | 35.4 | 0.00 | 0.00 | 0.00 | 51 | 1011.4 |
| 20260508103455 | 6 | 225 | 25.7 | 37.0 | 0.00 | 0.00 | 0.00 | 51 | 1011.5 |
| 20260508102944 | 5 | 225 | 24.1 | 37.0 | 0.00 | 0.00 | 0.00 | 52 | 1011.6 |
| 20260508101925 | 5 | 225 | 20.9 | 40.2 | 0.00 | 0.00 | 0.00 | 53 | 1011.6 |
| 20260508101414 | 5 | 225 | 24.1 | 38.6 | 0.00 | 0.00 | 0.00 | 53 | 1011.5 |
| 20260508100354 | 5 | 225 | 20.9 | 40.2 | 0.00 | 0.00 | 0.00 | 53 | 1011.4 |
| 20260508095333 | 5 | 225 | 30.6 | 38.6 | 0.00 | 0.00 | 0.00 | 52 | 1011.3 |
| 20260508094823 | 5 | 225 | 22.5 | 38.6 | 0.00 | 0.00 | 0.00 | 53 | 1011.4 |
| 20260508094322 | 5 | 225 | 24.1 | 37.0 | 0.00 | 0.00 | 0.00 | 52 | 1011.1 |
| 20260508093803 | 5 | 225 | 27.4 | 35.4 | 0.00 | 0.00 | 0.00 | 52 | 1011.3 |
| 20260508093253 | 5 | 248 | 20.9 | 33.8 | 0.00 | 0.00 | 0.00 | 52 | 1011.3 |
| 20260508092743 | 5 | 225 | 24.1 | 33.8 | 0.00 | 0.00 | 0.00 | 51 | 1011.3 |
| 20260508092233 | 5 | 225 | 19.3 | 35.4 | 0.00 | 0.00 | 0.00 | 51 | 1011.2 |
| 20260508091212 | 6 | 225 | 24.1 | 38.6 | 0.00 | 0.00 | 0.00 | 51 | 1011.2 |
| 20260508090152 | 6 | 225 | 24.1 | 35.4 | 0.00 | 0.00 | 0.00 | 49 | 1011.4 |
| 20260508085644 | 6 | 225 | 24.1 | 35.4 | 0.00 | 0.00 | 0.00 | 49 | 1011.2 |
| 20260508085133 | 6 | 248 | 22.5 | 43.5 | 0.00 | 0.00 | 0.00 | 49 | 1011.2 |
| 20260508084623 | 6 | 225 | 22.5 | 43.5 | 0.00 | 0.00 | 0.00 | 49 | 1011.1 |
| 20260508084112 | 6 | 203 | 24.1 | 35.4 | 0.00 | 0.00 | 0.00 | 49 | 1010.9 |
| 20260508083602 | 6 | 225 | 22.5 | 35.4 | 0.00 | 0.00 | 0.00 | 49 | 1011.0 |
| 20260508082032 | 6 | 225 | 24.1 | 37.0 | 0.00 | 0.00 | 0.00 | 49 | 1010.9 |
| 20260508081522 | 6 | 225 | 25.7 | 37.0 | 0.00 | 0.00 | 0.00 | 48 | 1010.9 |
| 20260508081012 | 6 | 203 | 24.1 | 37.0 | 0.00 | 0.00 | 0.00 | 49 | 1010.9 |
| 20260508080502 | 6 | 225 | 22.5 | 33.8 | 0.00 | 0.00 | 0.00 | 49 | 1010.9 |
| 20260508075951 | 6 | 225 | 19.3 | 37.0 | 0.00 | 0.00 | 0.00 | 49 | 1010.8 |
| 20260508075441 | 6 | 225 | 24.1 | 37.0 | 0.00 | 0.00 | 0.00 | 49 | 1010.8 |
| 20260508074931 | 6 | 225 | 16.1 | 29.0 | 0.00 | 0.00 | 0.00 | 50 | 1010.7 |
| 20260508074421 | 6 | 225 | 19.3 | 32.2 | 0.00 | 0.00 | 0.00 | 50 | 1010.5 |
| 20260508073911 | 6 | 203 | 22.5 | 33.8 | 0.00 | 0.00 | 0.00 | 49 | 1010.5 |
| 20260508073400 | 6 | 225 | 17.7 | 35.4 | 0.00 | 0.00 | 0.00 | 50 | 1010.5 |
| 20260508072851 | 6 | 203 | 20.9 | 35.4 | 0.00 | 0.00 | 0.00 | 49 | 1010.8 |
| 20260508072341 | 6 | 225 | 19.3 | 35.4 | 0.00 | 0.00 | 0.00 | 49 | 1010.8 |
| 20260508071830 | 6 | 225 | 19.3 | 37.0 | 0.00 | 0.00 | 0.00 | 48 | 1010.7 |
| 20260508071320 | 6 | 225 | 24.1 | 37.0 | 0.00 | 0.00 | 0.00 | 47 | 1010.8 |
| 20260508065750 | 6 | 248 | 24.1 | 38.6 | 0.00 | 0.00 | 0.00 | 46 | 1010.9 |
| 20260508065239 | 6 | 225 | 27.4 | 38.6 | 0.00 | 0.00 | 0.00 | 46 | 1010.9 |
| 20260508064729 | 6 | 203 | 24.1 | 40.2 | 0.00 | 0.00 | 0.00 | 47 | 1010.5 |
| 20260508063709 | 6 | 225 | 24.1 | 37.0 | 0.00 | 0.00 | 0.00 | 46 | 1010.8 |
| 20260508063159 | 6 | 203 | 25.7 | 35.4 | 0.00 | 0.00 | 0.00 | 47 | 1010.8 |
| 20260508062649 | 6 | 225 | 22.5 | 38.6 | 0.00 | 0.00 | 0.00 | 47 | 1010.7 |
| 20260508062139 | 6 | 203 | 24.1 | 38.6 | 0.00 | 0.00 | 0.00 | 47 | 1010.5 |
| 20260508061629 | 6 | 203 | 17.7 | 33.8 | 0.00 | 0.00 | 0.00 | 47 | 1010.8 |
| 20260508061119 | 6 | 225 | 20.9 | 37.0 | 0.00 | 0.00 | 0.00 | 47 | 1010.5 |
| 20260508060609 | 6 | 225 | 25.7 | 37.0 | 0.00 | 0.00 | 0.00 | 46 | 1010.9 |
| 20260508055549 | 6 | 225 | 16.1 | 32.2 | 0.00 | 0.00 | 0.00 | 47 | 1011.1 |
| 20260508055038 | 6 | 203 | 22.5 | 32.2 | 0.00 | 0.00 | 0.00 | 45 | 1011.1 |
| 20260508054528 | 6 | 225 | 17.7 | 32.2 | 0.00 | 0.00 | 0.00 | 45 | 1011.2 |
| 20260508054018 | 6 | 225 | 17.7 | 32.2 | 0.00 | 0.00 | 0.00 | 45 | 1011.3 |
| 20260508053507 | 7 | 225 | 17.7 | 29.0 | 0.00 | 0.00 | 0.00 | 45 | 1011.4 |
| 20260508052958 | 7 | 225 | 19.3 | 29.0 | 0.00 | 0.00 | 0.00 | 45 | 1011.6 |
| 20260508052447 | 7 | 225 | 20.9 | 29.0 | 0.00 | 0.00 | 0.00 | 45 | 1011.6 |
| 20260508051937 | 6 | 225 | 16.1 | 25.7 | 0.00 | 0.00 | 0.00 | 46 | 1011.6 |
| 20260508051430 | 6 | 225 | 14.5 | 25.7 | 0.00 | 0.00 | 0.00 | 46 | 1011.7 |
| 20260508050918 | 6 | 225 | 11.3 | 20.9 | 0.00 | 0.00 | 0.00 | 47 | 1011.8 |
| 20260508050408 | 6 | 225 | 8.0 | 0.0 | 0.00 | 0.00 | 0.00 | 47 | 1012.2 |
| 20260508050158 | 6 | 225 | 9.7 | 0.0 | 0.00 | 0.00 | 0.00 | 47 | 1012.1 |
| 20260508045028 | 6 | 225 | 8.0 | 20.9 | 0.00 | 0.00 | 0.00 | 46 | 1012.1 |
| 20260508044527 | 6 | 225 | 12.9 | 27.4 | 0.00 | 0.00 | 0.00 | 45 | 1012.7 |
| 20260508044007 | 7 | 225 | 12.9 | 29.0 | 0.00 | 0.00 | 0.00 | 44 | 1012.3 |
| 20260508043457 | 7 | 203 | 17.7 | 29.0 | 0.00 | 0.00 | 0.00 | 43 | 1012.1 |
| 20260508042947 | 7 | 225 | 16.1 | 25.7 | 0.00 | 0.00 | 0.00 | 44 | 1012.2 |
| 20260508042437 | 7 | 225 | 14.5 | 22.5 | 0.00 | 0.00 | 0.00 | 44 | 1012.3 |
| 20260508041417 | 7 | 225 | 17.7 | 29.0 | 0.00 | 0.00 | 0.00 | 43 | 1012.6 |
| 20260508040907 | 7 | 203 | 14.5 | 25.7 | 0.00 | 0.00 | 0.00 | 43 | 1012.4 |
| 20260508040356 | 7 | 225 | 17.7 | 27.4 | 0.00 | 0.00 | 0.00 | 43 | 1012.3 |
| 20260508035847 | 7 | 225 | 17.7 | 27.4 | 0.00 | 0.00 | 0.00 | 43 | 1012.2 |
| 20260508035336 | 7 | 225 | 17.7 | 29.0 | 0.00 | 0.00 | 0.00 | 42 | 1012.1 |
| 20260508034826 | 8 | 203 | 22.5 | 33.8 | 0.00 | 0.00 | 0.00 | 41 | 1012.2 |
| 20260508034317 | 8 | 203 | 22.5 | 33.8 | 0.00 | 0.00 | 0.00 | 40 | 1011.9 |
| 20260508033806 | 8 | 225 | 17.7 | 25.7 | 0.00 | 0.00 | 0.00 | 39 | 1011.9 |
| 20260508033256 | 8 | 225 | 17.7 | 32.2 | 0.00 | 0.00 | 0.00 | 39 | 1011.9 |
| 20260508032747 | 8 | 225 | 20.9 | 32.2 | 0.00 | 0.00 | 0.00 | 38 | 1011.8 |
| 20260508031727 | 9 | 225 | 20.9 | 32.2 | 0.00 | 0.00 | 0.00 | 36 | 1011.8 |
| 20260508031216 | 9 | 225 | 24.1 | 32.2 | 0.00 | 0.00 | 0.00 | 35 | 1011.7 |
| 20260508030706 | 8 | 225 | 17.7 | 25.7 | 0.00 | 0.00 | 0.00 | 37 | 1011.6 |
| 20260508030155 | 8 | 248 | 14.5 | 24.1 | 0.00 | 0.00 | 0.00 | 39 | 1011.3 |
| 20260508025135 | 7 | 248 | 11.3 | 20.9 | 0.00 | 0.00 | 0.00 | 41 | 1011.2 |
| 20260508024625 | 7 | 248 | 11.3 | 17.7 | 0.00 | 0.00 | 0.00 | 41 | 1011.1 |
| 20260508024115 | 7 | 248 | 12.9 | 17.7 | 0.00 | 0.00 | 0.00 | 41 | 1011.0 |
| 20260508023604 | 8 | 248 | 8.0 | 17.7 | 0.00 | 0.00 | 0.00 | 40 | 1011.0 |
| 20260508023055 | 8 | 225 | 9.7 | 20.9 | 0.00 | 0.00 | 0.00 | 39 | 1011.1 |
| 20260508022544 | 8 | 248 | 9.7 | 20.9 | 0.00 | 0.00 | 0.00 | 39 | 1010.8 |
| 20260508022035 | 8 | 270 | 3.2 | 14.5 | 0.00 | 0.00 | 0.00 | 41 | 1011.0 |
| 20260508021525 | 8 | 248 | 6.4 | 14.5 | 0.00 | 0.00 | 0.00 | 41 | 1010.7 |
| 20260508021014 | 7 | 293 | 1.6 | 11.3 | 0.00 | 0.00 | 0.00 | 42 | 1010.4 |
| 20260508020504 | 7 | 270 | 3.2 | 11.3 | 0.00 | 0.00 | 0.00 | 42 | 1010.3 |
| 20260508015954 | 7 | 270 | 1.6 | 11.3 | 0.00 | 0.00 | 0.00 | 43 | 1010.1 |
| 20260508015443 | 7 | 270 | 1.6 | 12.9 | 0.00 | 0.00 | 0.00 | 43 | 1010.2 |
| 20260508014934 | 7 | 248 | 0.0 | 12.9 | 0.00 | 0.00 | 0.00 | 42 | 1009.8 |
| 20260508014423 | 7 | 248 | 1.6 | 12.9 | 0.00 | 0.00 | 0.00 | 43 | 1009.9 |
| 20260508013913 | 7 | 248 | 6.4 | 12.9 | 0.00 | 0.00 | 0.00 | 43 | 1009.4 |
| 20260508013403 | 7 | 248 | 6.4 | 14.5 | 0.00 | 0.00 | 0.00 | 44 | 1009.0 |
| 20260508011323 | 6 | 248 | 6.4 | 12.9 | 0.00 | 0.00 | 0.00 | 46 | 1009.2 |
| 20260508010813 | 5 | 248 | 1.6 | 6.4 | 0.00 | 0.00 | 0.00 | 49 | 1009.1 |
| 20260508010302 | 5 | 270 | 0.0 | 11.3 | 0.00 | 0.00 | 0.00 | 50 | 1009.1 |
| 20260508005752 | 6 | 270 | 1.6 | 17.7 | 0.00 | 0.00 | 0.00 | 45 | 1009.3 |
| 20260508005243 | 6 | 248 | 9.7 | 17.7 | 0.00 | 0.00 | 0.00 | 46 | 1009.2 |
| 20260508004732 | 4 | 203 | 4.8 | 9.7 | 0.00 | 0.00 | 0.00 | 53 | 1008.9 |
| 20260508004225 | 2 | 180 | 0.0 | 6.4 | 0.00 | 0.00 | 0.00 | 59 | 1008.9 |
| 20260508003712 | 3 | 180 | 0.0 | 3.2 | 0.00 | 0.00 | 0.00 | 56 | 1008.5 |
| 20260508003202 | 5 | 270 | 0.0 | 6.4 | 0.00 | 0.00 | 0.00 | 50 | 1008.8 |
| 20260508002651 | 4 | 293 | 1.6 | 6.4 | 0.00 | 0.00 | 0.00 | 52 | 1008.9 |
| 20260508001121 | 5 | 270 | 0.0 | 3.2 | 0.00 | 0.00 | 0.00 | 48 | 1008.6 |